TO-108
1 44881U 19093C   25210.80474702  .00000949  00000-0  11544-3 0  9999
2 44881  97.7906 285.4019 0015116  69.2496 291.0337 14.85686397303530
FloripaSat 1
1 44885U 19093G   25210.82293560  .00004581  00000-0  38338-3 0  9992
2 44885  97.8156 298.5420 0011060  38.8050 321.3964 14.98916931304274
RS-44
1 44909U 19096E   25210.43345010  .00000006  00000-0 -23366-4 0  9992
2 44909  82.5207 194.1558 0217422 178.7097 181.4612 12.79742183261064
UPMSat 2
1 46276U 20061E   25210.46584165  .00102870  00000-0  66530-3 0  9994
2 46276  97.2393 286.7587 0001218 166.2367 193.8932 15.75771844273305
SALSAT
1 46495U 20068K   25210.54824361  .00007419  00000-0  31511-3 0  9992
2 46495  97.8640 190.9144 0010812 358.8691   1.2518 15.23335651266133
CubeSX-Sirius-HSE
1 47951U 21022V   25157.62701764  .07883385  25648-5  89537-3 0  9993
2 47951  97.4004  72.1904 0010275 223.9924 136.0557 16.36879307233400
CubeSX-HSE
1 47952U 21022W   25157.69972699  .06655353  25454-5  93288-3 0  9992
2 47952  97.3980  72.5414 0010307 219.3637 140.6911 16.34906352233436
GRBAlpha
1 47959U 21022AD  25160.45426279  .07940347  25506-5  90589-3 0  9995
2 47959  97.3899  75.6235 0011032 227.2558 132.7812 16.36806138232695
TUBIN
1 48900U 21059X   25210.80576606  .00045101  00000-0  46649-3 0  9999
2 48900  97.6774  24.2730 0003108  58.1103 302.0457 15.64613473227889
LEDSAT
1 49069U 21073D   25210.79045508  .00094767  00000-0  86360-3 0  9998
2 49069  97.3851 294.6601 0008546 239.9569 120.0845 15.67564767219283
CUTE
1 49263U 21088D   25210.20040901  .00015045  00000-0  27732-3 0  9998
2 49263  97.4480 287.9576 0007975  66.3909 293.8178 15.49206559212103
TeikyoSat 4
1 49396U 21102B   25210.65807611  .00002093  00000-0  14051-3 0  9999
2 49396  97.4076 247.2760 0011508 328.3830  31.6706 15.07817138204095
Z-Sat
1 49399U 21102E   25210.82931963  .00003505  00000-0  19191-3 0  9998
2 49399  97.3768 250.8527 0016242 291.5751  68.3750 15.14761657204581
KOSEN 1
1 49402U 21102H   25210.68406973  .00006494  00000-0  29653-3 0  9999
2 49402  97.3669 254.5115 0013978 262.0260  97.9390 15.20845248204901
HO-113
1 50466U 21131B   25210.83011126  .00000535  00000-0  18080-3 0  9994
2 50466  98.5105 299.9383 0003918   3.2659 356.8554 14.40862910188682
Foresail-1
1 52766U 22057AL  25176.64799660  .13857605  27391-5  25307-3 0  9992
2 52766  97.5832 331.2310 0012137 233.7199 258.4922 16.46795272172486
SNUGLITE 2
1 52899U 22065F   25210.88706343  .00001095  00000-0  22141-3 0  9995
2 52899  98.1753 352.3901 0006700 323.5080  36.5664 14.63309481163846
UmKA 1 (RS40S)
1 57172U 23091G   25210.85050950  .00005388  00000-0  28478-3 0  9995
2 57172  97.5543 265.9768 0015041 155.4625 204.7326 15.15815133115092
CubeBel-2 (EU11S)
1 57175U 23091K   25210.87577096  .00008613  00000-0  40121-3 0  9998
2 57175  97.5542 267.4646 0012726 160.5787 199.5935 15.20083023115198
VERONIKA
1 58261U 23174F   25210.84410128  .00453754  81399-4  13865-2 0  9994
2 58261  97.4021 300.6843 0008174 238.5920 121.4555 15.91871778 96619
ENSO
1 58470U 23185J   25210.85246790  .00065068  00000-0  76871-3 0  9991
2 58470  97.3691 287.7603 0006004 241.1790 118.8865 15.61088905 92863
EIRSAT-1
1 58472U 23185L   25210.77181796  .00224681  00000-0  11630-2 0  9997
2 58472  97.3622 290.6835 0006633 238.0745 121.9878 15.80425496 93054
SONATE-2
1 59112U 24043Q   25210.83823885  .00016615  00000-0  45807-3 0  9992
2 59112  97.5195 343.0904 0009555 296.8558  63.1709 15.37148886 78053
MO-122
1 60209U 24125G   25210.57923656  .00017407  00000-0  47095-3 0  9991
2 60209  97.2744  61.6762 0016730 321.6582  38.3473 15.37619919 59636
GRBBeta
1 60237U 24128C   25210.50581148  .00003124  00000-0  23928-3 0  9994
2 60237  61.9903 265.4350 0055172  68.1173 292.5772 15.02983036 57709
Curium One
1 60242U 24128H   25210.52235174  .00005346  00000-0  37008-3 0  9999
2 60242  61.9798 262.9055 0055208  64.3816 296.2966 15.05709132 57750
ROBUSTA-3A
1 60243U 24128J   25210.47430842  .00005358  00000-0  37613-3 0  9998
2 60243  61.9871 264.0714 0054185  62.0239 298.6322 15.05229157 57739
CatSat
1 60246U 24125J   25210.56713414  .00016015  00000-0  51889-3 0  9990
2 60246  97.2549  60.2941 0039888 276.0275  83.6422 15.31301140 57638
HYPERVIEW-1G (RS66S)
1 61772U 24199AP  25210.82781830  .00021867  00000-0  59877-3 0  9998
2 61772  97.3461  79.6230 0013236  21.4099 338.7696 15.37255119 84678
AO-123
1 61781U 24199AY  25210.85329234  .00006610  00000-0  23703-3 0  9995
2 61781  97.3480  77.9626 0016267  25.9983 334.2071 15.28925150 84562
ZIMSAT 2
1 61783U 24199BA  25210.88342082  .00039466  00000-0  86467-3 0  9997
2 61783  97.3429  80.7216 0012194  18.4986 341.6703 15.43920766 87909
HADES-R (SO-124)
1 62690U 25009CK  25210.49177160  .00039160  00000-0  12579-2 0  9999
2 62690  97.4070 291.2016 0001953 245.7743 114.3295 15.32177536 29784
HYDRA-T
1 62692U 25009CM  25210.46772091  .00042725  00000-0  13570-2 0  9995
2 62692  97.4074 291.2340 0001843 237.7589 122.3475 15.32520115 29781
JINJUSat 1B
1 63210U 25052A   25210.26277885  .00011946  00000-0  53260-3 0  9991
2 63210  97.4348 103.7713 0005599 132.0015 228.1698 15.21550360 20805
NUSHSAT 1
1 63211U 25052B   25210.44596282  .00013317  00000-0  58749-3 0  9998
2 63211  97.4336 103.9671 0005578 134.8614 225.3076 15.21884760 20836
TEVEL2-4
1 63213U 25052D   25210.20685305  .00011924  00000-0  53186-3 0  9991
2 63213  97.4253 103.5298 0004271 144.8042 215.3476 15.21539484 20790
TEVEL2-5
1 63214U 25052E   25210.60276447  .00011626  00000-0  51894-3 0  9992
2 63214  97.4251 103.9179 0004311 144.0786 216.0740 15.21520536 20850
TEVEL2-6
1 63215U 25052F   25210.60622733  .00011705  00000-0  52305-3 0  9992
2 63215  97.4253 103.9153 0004371 145.0893 215.0630 15.21481388 20859
TEVEL2-1
1 63217U 25052H   25210.69041280  .00011186  00000-0  50337-3 0  9991
2 63217  97.4231 103.9116 0004127 155.2817 204.8618 15.21252234 20863
TEVEL2-2
1 63218U 25052J   25210.69065565  .00011199  00000-0  50389-3 0  9995
2 63218  97.4230 103.9131 0004170 155.6965 204.4468 15.21255940 20862
TEVEL2-3
1 63219U 25052K   25210.23054493  .00011729  00000-0  52786-3 0  9996
2 63219  97.4232 103.4579 0004043 157.2683 202.8732 15.21237918 20793
TEVEL2-8
1 63237U 25052AD  25210.26994949  .00011311  00000-0  52765-3 0  9992
2 63237  97.4294 103.3666 0007631 187.5091 172.6031 15.19994185 20780
TEVEL2-9
1 63238U 25052AE  25210.20858600  .00010752  00000-0  50282-3 0  9990
2 63238  97.4294 103.2991 0007727 187.7032 172.4085 15.19920744 20770
TEVEL2-7
1 63239U 25052AF  25210.67247552  .00010461  00000-0  48961-3 0  9998
2 63239  97.4294 103.7473 0007756 186.3673 173.7464 15.19898327 20843
HYDRA-W
1 63490U 25052BL  25209.97751978  .00026524  00000-0  10485-2 0  9996
2 63490  97.4244 103.6644 0011220 186.2176 173.8924 15.25404193 20780
HADES-ICM (SO-125)
1 63492U 25052BN  25210.20519927  .00026965  00000-0  10835-2 0  9990
2 63492  97.4246 103.8286 0011378 190.1212 169.9798 15.24850984 20818
